Time,TemperatureF,DewpointF,PressureIn,WindDirection,WindDirectionDegrees,WindSpeedMPH,WindSpeedGustMPH,Humidity,HourlyPrecipIn,Conditions,Clouds,dailyrainin,SoftwareType,DateUTC
2013-05-28 00:02:00,76.0,65.0,29.84,SSW,213,2.0,6.0,70,0.00,,,0.00,,2013-05-28 05:02:00,
2013-05-28 00:12:00,76.0,65.0,29.84,SSW,213,2.0,6.0,70,0.00,,,0.00,,2013-05-28 05:12:00,
2013-05-28 00:22:00,76.0,65.0,29.83,SSE,164,2.0,6.0,70,0.00,,,0.00,,2013-05-28 05:22:00,
2013-05-28 00:33:00,76.0,65.0,29.83,South,191,2.0,7.0,70,0.00,,,0.00,,2013-05-28 05:33:00,
2013-05-28 00:42:00,76.0,65.0,29.83,South,191,2.0,7.0,70,0.00,,,0.00,,2013-05-28 05:42:00,
2013-05-28 00:52:00,76.0,66.0,29.83,SSE,164,1.0,7.0,71,0.00,,,0.00,,2013-05-28 05:52:00,
2013-05-28 01:02:00,76.0,66.0,29.83,South,169,2.0,7.0,71,0.00,,,0.00,,2013-05-28 06:02:00,
2013-05-28 01:12:00,76.0,66.0,29.83,South,169,2.0,7.0,71,0.00,,,0.00,,2013-05-28 06:12:00,
2013-05-28 01:21:00,76.0,65.0,29.83,South,173,2.0,7.0,70,0.00,,,0.00,,2013-05-28 06:21:00,
2013-05-28 01:32:00,76.0,66.0,29.83,South,173,2.0,7.0,71,0.00,,,0.00,,2013-05-28 06:32:00,
2013-05-28 01:42:00,76.0,66.0,29.83,South,173,2.0,7.0,71,0.00,,,0.00,,2013-05-28 06:42:00,
2013-05-28 01:51:00,75.0,65.0,29.83,SSW,209,1.0,5.0,71,0.00,,,0.00,,2013-05-28 06:51:00,
2013-05-28 02:01:00,75.0,65.0,29.83,South,182,1.0,4.0,72,0.00,,,0.00,,2013-05-28 07:01:00,
2013-05-28 02:11:00,75.0,65.0,29.83,South,182,1.0,4.0,72,0.00,,,0.00,,2013-05-28 07:11:00,
2013-05-28 02:21:00,74.0,65.0,29.81,South,173,0.0,4.0,73,0.00,,,0.00,,2013-05-28 07:21:00,
2013-05-28 02:32:00,74.0,65.0,29.80,SSW,207,1.0,3.0,74,0.00,,,0.00,,2013-05-28 07:32:00,
2013-05-28 02:42:00,74.0,65.0,29.80,SSW,207,1.0,3.0,74,0.00,,,0.00,,2013-05-28 07:42:00,
2013-05-28 02:52:00,74.0,65.0,29.79,SSW,200,2.0,9.0,74,0.00,,,0.00,,2013-05-28 07:52:00,
2013-05-28 03:02:00,74.0,65.0,29.79,South,171,2.0,7.0,73,0.00,,,0.00,,2013-05-28 08:02:00,
2013-05-28 03:11:00,74.0,65.0,29.79,South,171,2.0,7.0,73,0.00,,,0.00,,2013-05-28 08:11:00,
2013-05-28 03:22:00,74.0,65.0,29.78,South,171,2.0,7.0,73,0.00,,,0.00,,2013-05-28 08:22:00,
2013-05-28 03:32:00,74.0,65.0,29.78,SSW,192,3.0,10.0,73,0.00,,,0.00,,2013-05-28 08:32:00,
2013-05-28 03:42:00,74.0,65.0,29.78,SSW,192,3.0,10.0,73,0.00,,,0.00,,2013-05-28 08:42:00,
2013-05-28 03:51:00,74.0,65.0,29.77,South,181,2.0,10.0,73,0.00,,,0.00,,2013-05-28 08:51:00,
2013-05-28 04:01:00,74.0,65.0,29.78,South,169,2.0,7.0,73,0.00,,,0.00,,2013-05-28 09:01:00,
2013-05-28 04:11:00,74.0,65.0,29.78,South,169,2.0,7.0,73,0.00,,,0.00,,2013-05-28 09:11:00,
2013-05-28 04:21:00,74.0,65.0,29.80,SSW,205,2.0,6.0,74,0.00,,,0.00,,2013-05-28 09:21:00,
2013-05-28 04:33:00,74.0,65.0,29.80,SSW,202,1.0,8.0,74,0.00,,,0.00,,2013-05-28 09:33:00,
2013-05-28 04:42:00,74.0,65.0,29.80,SSW,202,1.0,8.0,74,0.00,,,0.00,,2013-05-28 09:42:00,
2013-05-28 04:53:00,74.0,66.0,29.80,South,184,1.0,5.0,75,0.00,,,0.00,,2013-05-28 09:53:00,
2013-05-28 05:03:00,74.0,66.0,29.80,South,171,2.0,7.0,75,0.00,,,0.00,,2013-05-28 10:03:00,
2013-05-28 05:12:00,74.0,66.0,29.80,South,171,2.0,7.0,75,0.00,,,0.00,,2013-05-28 10:12:00,
2013-05-28 05:23:00,74.0,66.0,29.81,SW,216,3.0,7.0,75,0.00,,,0.00,,2013-05-28 10:23:00,
2013-05-28 05:32:00,74.0,66.0,29.82,South,182,1.0,7.0,75,0.00,,,0.00,,2013-05-28 10:32:00,
2013-05-28 05:42:00,74.0,66.0,29.82,South,182,1.0,7.0,75,0.00,,,0.00,,2013-05-28 10:42:00,
2013-05-28 05:53:00,74.0,66.0,29.82,South,182,1.0,7.0,75,0.00,,,0.00,,2013-05-28 10:53:00,
2013-05-28 06:02:00,73.0,65.0,29.83,SSW,213,1.0,5.0,75,0.00,,,0.00,,2013-05-28 11:02:00,
2013-05-28 06:11:00,73.0,65.0,29.83,SSW,213,1.0,5.0,75,0.00,,,0.00,,2013-05-28 11:11:00,
2013-05-28 06:22:00,73.0,65.0,29.84,SSE,154,1.0,4.0,75,0.00,,,0.00,,2013-05-28 11:22:00,
2013-05-28 06:32:00,73.0,65.0,29.85,SSW,195,0.0,3.0,77,0.00,,,0.00,,2013-05-28 11:32:00,
2013-05-28 06:42:00,73.0,65.0,29.85,SSW,195,0.0,3.0,77,0.00,,,0.00,,2013-05-28 11:42:00,
2013-05-28 06:52:00,73.0,65.0,29.85,South,191,0.0,3.0,77,0.00,,,0.00,,2013-05-28 11:52:00,
2013-05-28 07:01:00,73.0,66.0,29.86,SSW,192,0.0,2.0,78,0.00,,,0.00,,2013-05-28 12:01:00,
2013-05-28 07:11:00,73.0,66.0,29.86,SSW,192,0.0,2.0,78,0.00,,,0.00,,2013-05-28 12:11:00,
2013-05-28 07:21:00,73.0,66.0,29.86,South,189,0.0,4.0,78,0.00,,,0.00,,2013-05-28 12:21:00,
2013-05-28 07:32:00,73.0,66.0,29.85,SSW,199,0.0,2.0,78,0.00,,,0.00,,2013-05-28 12:32:00,
2013-05-28 07:42:00,73.0,66.0,29.85,SSW,199,0.0,2.0,78,0.00,,,0.00,,2013-05-28 12:42:00,
2013-05-28 07:52:00,73.0,66.0,29.85,SE,146,1.0,4.0,79,0.00,,,0.00,,2013-05-28 12:52:00,
2013-05-28 08:01:00,73.0,66.0,29.85,South,179,0.0,3.0,79,0.00,,,0.00,,2013-05-28 13:01:00,
2013-05-28 08:11:00,73.0,66.0,29.85,South,179,0.0,3.0,79,0.00,,,0.00,,2013-05-28 13:11:00,
2013-05-28 08:21:00,73.0,66.0,29.86,SSW,194,1.0,5.0,80,0.00,,,0.00,,2013-05-28 13:21:00,
2013-05-28 08:32:00,73.0,66.0,29.86,South,173,0.0,4.0,80,0.00,,,0.00,,2013-05-28 13:32:00,
2013-05-28 08:42:00,73.0,66.0,29.86,South,173,0.0,4.0,80,0.00,,,0.00,,2013-05-28 13:42:00,
2013-05-28 08:52:00,73.0,66.0,29.87,South,182,1.0,4.0,79,0.00,,,0.00,,2013-05-28 13:52:00,
2013-05-28 09:02:00,74.0,67.0,29.87,SSW,200,1.0,6.0,79,0.00,,,0.00,,2013-05-28 14:02:00,
2013-05-28 09:11:00,74.0,67.0,29.87,SSW,200,1.0,6.0,79,0.00,,,0.00,,2013-05-28 14:11:00,
2013-05-28 09:21:00,74.0,67.0,29.87,South,172,1.0,7.0,79,0.00,,,0.00,,2013-05-28 14:21:00,
2013-05-28 09:32:00,74.0,67.0,29.89,South,191,0.0,4.0,78,0.00,,,0.00,,2013-05-28 14:32:00,
2013-05-28 09:42:00,74.0,67.0,29.89,South,191,0.0,4.0,78,0.00,,,0.00,,2013-05-28 14:42:00,
2013-05-28 09:52:00,74.0,67.0,29.89,SSW,194,0.0,3.0,79,0.00,,,0.00,,2013-05-28 14:52:00,
2013-05-28 10:01:00,74.0,67.0,29.89,SSW,194,0.0,3.0,79,0.00,,,0.00,,2013-05-28 15:01:00,
2013-05-28 10:11:00,74.0,67.0,29.89,SSW,194,0.0,3.0,79,0.00,,,0.00,,2013-05-28 15:11:00,
2013-05-28 10:21:00,75.0,67.0,29.90,South,181,1.0,6.0,76,0.00,,,0.00,,2013-05-28 15:21:00,
2013-05-28 10:33:00,75.0,67.0,29.90,SSE,168,3.0,7.0,75,0.00,,,0.00,,2013-05-28 15:33:00,
2013-05-28 10:43:00,75.0,67.0,29.90,SSE,168,3.0,7.0,75,0.00,,,0.00,,2013-05-28 15:43:00,
2013-05-28 10:52:00,75.0,66.0,29.90,South,175,1.0,5.0,74,0.00,,,0.00,,2013-05-28 15:52:00,
2013-05-28 11:03:00,76.0,67.0,29.90,SSE,161,2.0,10.0,74,0.00,,,0.00,,2013-05-28 16:03:00,
2013-05-28 11:12:00,76.0,67.0,29.90,SSE,161,2.0,10.0,74,0.00,,,0.00,,2013-05-28 16:12:00,
2013-05-28 11:22:00,76.0,66.0,29.89,SW,226,2.0,6.0,71,0.00,,,0.00,,2013-05-28 16:22:00,
2013-05-28 11:33:00,78.0,67.0,29.89,SSW,202,3.0,8.0,69,0.00,,,0.00,,2013-05-28 16:33:00,
2013-05-28 11:42:00,78.0,67.0,29.89,SSW,202,3.0,8.0,69,0.00,,,0.00,,2013-05-28 16:42:00,
2013-05-28 11:52:00,78.0,67.0,29.88,SSE,164,3.0,8.0,69,0.00,,,0.00,,2013-05-28 16:52:00,
2013-05-28 12:02:00,78.0,67.0,29.88,SSE,165,3.0,7.0,69,0.00,,,0.00,,2013-05-28 17:02:00,
2013-05-28 12:12:00,78.0,67.0,29.88,SSE,165,3.0,7.0,69,0.00,,,0.00,,2013-05-28 17:12:00,
2013-05-28 12:22:00,78.0,67.0,29.88,SSE,165,3.0,7.0,69,0.00,,,0.00,,2013-05-28 17:22:00,
2013-05-28 12:32:00,81.0,68.0,29.88,South,176,3.0,11.0,64,0.00,,,0.00,,2013-05-28 17:32:00,
2013-05-28 12:42:00,81.0,68.0,29.89,South,184,3.0,9.0,64,0.00,,,0.00,,2013-05-28 17:42:00,
2013-05-28 12:52:00,81.0,68.0,29.89,South,184,3.0,9.0,64,0.00,,,0.00,,2013-05-28 17:52:00,
2013-05-28 13:01:00,80.0,67.0,29.89,SSE,165,2.0,7.0,65,0.00,,,0.00,,2013-05-28 18:01:00,
2013-05-28 13:11:00,80.0,67.0,29.89,SSE,165,2.0,7.0,65,0.00,,,0.00,,2013-05-28 18:11:00,
2013-05-28 13:21:00,80.0,67.0,29.89,SSE,165,2.0,7.0,65,0.00,,,0.00,,2013-05-28 18:21:00,
2013-05-28 13:32:00,79.0,67.0,29.86,SW,231,1.0,5.0,66,0.00,,,0.00,,2013-05-28 18:32:00,
2013-05-28 13:42:00,80.0,68.0,29.86,South,170,2.0,10.0,66,0.00,,,0.00,,2013-05-28 18:42:00,
2013-05-28 13:52:00,80.0,68.0,29.86,South,170,2.0,10.0,66,0.00,,,0.00,,2013-05-28 18:52:00,
2013-05-28 14:01:00,82.0,69.0,29.85,SSW,192,2.0,8.0,64,0.00,,,0.00,,2013-05-28 19:01:00,
2013-05-28 14:11:00,82.0,69.0,29.85,SSW,192,2.0,8.0,64,0.00,,,0.00,,2013-05-28 19:11:00,
2013-05-28 14:21:00,83.0,69.0,29.85,SSE,150,3.0,7.0,62,0.00,,,0.00,,2013-05-28 19:21:00,
2013-05-28 14:32:00,84.0,69.0,29.85,SW,221,3.0,10.0,61,0.00,,,0.00,,2013-05-28 19:32:00,
2013-05-28 14:42:00,84.0,69.0,29.85,SW,221,3.0,10.0,61,0.00,,,0.00,,2013-05-28 19:42:00,
2013-05-28 14:52:00,84.0,68.0,29.85,SSW,207,5.0,10.0,58,0.00,,,0.00,,2013-05-28 19:52:00,
2013-05-28 15:01:00,84.0,67.0,29.85,SSE,168,4.0,11.0,57,0.00,,,0.00,,2013-05-28 20:01:00,
2013-05-28 15:11:00,84.0,67.0,29.85,SSE,168,4.0,11.0,57,0.00,,,0.00,,2013-05-28 20:11:00,
2013-05-28 15:22:00,84.0,67.0,29.85,SW,234,3.0,12.0,57,0.00,,,0.00,,2013-05-28 20:22:00,
2013-05-28 15:32:00,86.0,69.0,29.85,South,173,2.0,8.0,58,0.00,,,0.00,,2013-05-28 20:32:00,
2013-05-28 15:42:00,86.0,69.0,29.85,South,173,2.0,8.0,58,0.00,,,0.00,,2013-05-28 20:42:00,
2013-05-28 15:52:00,84.0,68.0,29.85,South,183,2.0,13.0,58,0.00,,,0.00,,2013-05-28 20:52:00,
2013-05-28 16:01:00,84.0,68.0,29.84,South,177,4.0,9.0,58,0.00,,,0.00,,2013-05-28 21:01:00,
2013-05-28 16:11:00,84.0,68.0,29.84,South,173,3.0,12.0,58,0.00,,,0.00,,2013-05-28 21:11:00,
2013-05-28 16:21:00,84.0,68.0,29.84,South,173,3.0,12.0,58,0.00,,,0.00,,2013-05-28 21:21:00,
2013-05-28 16:33:00,84.0,68.0,29.84,South,186,2.0,8.0,59,0.00,,,0.00,,2013-05-28 21:33:00,
2013-05-28 16:43:00,84.0,68.0,29.84,South,186,2.0,8.0,59,0.00,,,0.00,,2013-05-28 21:43:00,
2013-05-28 16:53:00,84.0,68.0,29.85,South,179,2.0,7.0,58,0.00,,,0.00,,2013-05-28 21:53:00,
2013-05-28 17:02:00,85.0,68.0,29.85,South,177,4.0,14.0,56,0.00,,,0.00,,2013-05-28 22:02:00,
2013-05-28 17:12:00,85.0,68.0,29.85,SSW,204,3.0,10.0,56,0.00,,,0.00,,2013-05-28 22:12:00,
2013-05-28 17:22:00,85.0,68.0,29.85,SSW,204,3.0,10.0,56,0.00,,,0.00,,2013-05-28 22:22:00,
2013-05-28 17:32:00,84.0,66.0,29.84,South,173,4.0,14.0,54,0.00,,,0.00,,2013-05-28 22:32:00,
2013-05-28 17:42:00,85.0,67.0,29.84,SSW,211,3.0,11.0,55,0.00,,,0.00,,2013-05-28 22:42:00,
2013-05-28 17:52:00,85.0,67.0,29.84,SSW,211,3.0,11.0,55,0.00,,,0.00,,2013-05-28 22:52:00,
2013-05-28 18:02:00,84.0,67.0,29.84,SSW,206,3.0,9.0,57,0.00,,,0.00,,2013-05-28 23:02:00,
2013-05-28 18:11:00,84.0,67.0,29.84,SSW,206,3.0,9.0,57,0.00,,,0.00,,2013-05-28 23:11:00,
2013-05-28 18:22:00,82.0,66.0,29.83,South,182,2.0,9.0,59,0.00,,,0.00,,2013-05-28 23:22:00,
2013-05-28 18:32:00,82.0,67.0,29.83,SSE,155,2.0,6.0,61,0.00,,,0.00,,2013-05-28 23:32:00,
2013-05-28 18:42:00,82.0,67.0,29.83,SSE,155,2.0,6.0,61,0.00,,,0.00,,2013-05-28 23:42:00,
2013-05-28 18:52:00,81.0,67.0,29.83,South,171,1.0,4.0,62,0.00,,,0.00,,2013-05-28 23:52:00,
2013-05-28 19:02:00,81.0,67.0,29.83,South,191,0.0,4.0,63,0.00,,,0.00,,2013-05-29 00:02:00,
2013-05-28 19:11:00,81.0,67.0,29.83,South,191,0.0,4.0,63,0.00,,,0.00,,2013-05-29 00:11:00,
2013-05-28 19:21:00,80.0,66.0,29.83,SSW,198,0.0,2.0,63,0.00,,,0.00,,2013-05-29 00:21:00,
2013-05-28 19:32:00,80.0,67.0,29.83,South,174,1.0,4.0,64,0.00,,,0.00,,2013-05-29 00:32:00,
2013-05-28 19:41:00,80.0,67.0,29.83,South,174,1.0,4.0,64,0.00,,,0.00,,2013-05-29 00:41:00,
2013-05-28 19:52:00,80.0,67.0,29.83,SSE,161,1.0,4.0,64,0.00,,,0.00,,2013-05-29 00:52:00,
2013-05-28 20:01:00,79.0,66.0,29.83,South,171,0.0,2.0,64,0.00,,,0.00,,2013-05-29 01:01:00,
2013-05-28 20:11:00,79.0,66.0,29.83,South,171,0.0,2.0,64,0.00,,,0.00,,2013-05-29 01:11:00,
2013-05-28 20:22:00,79.0,66.0,29.83,South,180,0.0,2.0,65,0.00,,,0.00,,2013-05-29 01:22:00,
2013-05-28 20:32:00,79.0,65.0,29.83,South,185,2.0,6.0,63,0.00,,,0.00,,2013-05-29 01:32:00,
2013-05-28 20:42:00,79.0,65.0,29.83,South,185,2.0,6.0,63,0.00,,,0.00,,2013-05-29 01:42:00,
2013-05-28 20:52:00,78.0,65.0,29.83,South,186,0.0,4.0,64,0.00,,,0.00,,2013-05-29 01:52:00,
2013-05-28 21:02:00,78.0,65.0,29.83,South,182,0.0,2.0,64,0.00,,,0.00,,2013-05-29 02:02:00,
2013-05-28 21:12:00,78.0,65.0,29.83,South,182,0.0,2.0,64,0.00,,,0.00,,2013-05-29 02:12:00,
2013-05-28 21:21:00,78.0,65.0,29.82,South,181,1.0,3.0,65,0.00,,,0.00,,2013-05-29 02:21:00,
2013-05-28 21:32:00,78.0,65.0,29.82,South,169,0.0,5.0,65,0.00,,,0.00,,2013-05-29 02:32:00,
2013-05-28 21:42:00,78.0,66.0,29.83,South,178,2.0,9.0,66,0.00,,,0.00,,2013-05-29 02:42:00,
2013-05-28 21:52:00,78.0,66.0,29.83,South,178,2.0,9.0,66,0.00,,,0.00,,2013-05-29 02:52:00,
2013-05-28 22:02:00,77.0,65.0,29.83,SSW,196,2.0,6.0,67,0.00,,,0.00,,2013-05-29 03:02:00,
2013-05-28 22:12:00,77.0,65.0,29.83,SSW,196,2.0,6.0,67,0.00,,,0.00,,2013-05-29 03:12:00,
2013-05-28 22:21:00,77.0,65.0,29.85,WSW,250,2.0,7.0,67,0.00,,,0.00,,2013-05-29 03:21:00,
2013-05-28 22:33:00,77.0,66.0,29.86,SSW,194,1.0,6.0,68,0.00,,,0.00,,2013-05-29 03:33:00,
2013-05-28 22:43:00,77.0,66.0,29.86,SSW,194,1.0,6.0,68,0.00,,,0.00,,2013-05-29 03:43:00,
2013-05-28 22:53:00,77.0,66.0,29.86,WSW,250,0.0,5.0,68,0.00,,,0.00,,2013-05-29 03:53:00,
2013-05-28 23:02:00,77.0,66.0,29.87,South,169,0.0,3.0,69,0.00,,,0.00,,2013-05-29 04:02:00,
2013-05-28 23:13:00,76.0,65.0,29.87,North,9,0.0,3.0,70,0.00,,,0.00,,2013-05-29 04:13:00,
2013-05-28 23:23:00,76.0,65.0,29.87,North,9,0.0,3.0,70,0.00,,,0.00,,2013-05-29 04:23:00,
2013-05-28 23:33:00,76.0,66.0,29.86,North,9,0.0,1.0,71,0.00,,,0.00,,2013-05-29 04:33:00,
2013-05-28 23:42:00,76.0,66.0,29.86,North,9,0.0,1.0,71,0.00,,,0.00,,2013-05-29 04:42:00,
2013-05-28 23:52:00,75.0,65.0,29.86,North,9,0.0,1.0,72,0.00,,,0.00,,2013-05-29 04:52:00,